Location: Nashville
(36.1660°N, 86.7840°W)
Time: 20:52:28
(UTC-06:00)

S-56A Canister/Altair - All Passes

Search period start: 27 January 2022 00:00
Search period end: 06 February 2022 00:00
Orbit: 634 x 2499 km, 38.9° (Epoch: 26 January)

Date Brightness Start Highest point End Pass type
(mag) Time Alt. Az. Time Alt. Az. Time Alt. Az.
27 Jan - 05:18:01 10° SSW 05:21:32 22° SE 05:25:03 10° E visible
27 Jan - 07:20:14 10° WSW 07:24:42 89° S 07:30:10 10° ENE daylight
27 Jan - 09:23:44 10° WNW 09:28:46 69° N 09:35:57 10° E daylight
27 Jan - 11:26:57 10° WNW 11:33:07 71° SSW 11:42:34 10° ESE daylight
27 Jan - 13:31:05 10° W 13:37:46 30° SSW 13:46:59 10° SSE daylight
28 Jan - 04:45:53 10° S 04:49:05 18° SE 04:52:11 10° E visible
28 Jan - 06:47:48 10° WSW 06:52:13 80° SSE 06:57:18 10° ENE daylight
28 Jan - 08:51:22 10° W 08:56:09 66° N 09:02:42 10° E daylight
28 Jan - 10:54:36 10° WNW 11:00:22 76° SSW 11:09:09 10° ESE daylight
28 Jan - 12:58:28 10° W 13:04:52 32° SSW 13:13:51 10° SSE daylight
29 Jan - 04:13:49 10° S 04:16:38 15° SE 04:19:16 10° ESE visible
29 Jan - 06:15:21 10° WSW 06:19:47 71° SSE 06:24:33 10° ENE visible
29 Jan - 08:18:59 10° W 08:23:34 65° N 08:29:33 10° E daylight
29 Jan - 10:22:16 10° WNW 10:27:41 82° SSW 10:35:46 10° ESE daylight
29 Jan - 12:25:56 10° W 12:32:01 34° SSW 12:40:41 10° SSE daylight
30 Jan - 03:41:50 10° S 03:44:08 13° SE 03:46:16 10° ESE visible
30 Jan - 05:42:51 10° WSW 05:47:20 61° SSE 05:51:52 10° ENE visible
30 Jan - 07:46:33 10° W 07:51:01 64° N 07:56:32 10° E daylight
30 Jan - 09:49:57 10° WNW 09:55:04 89° SSW 10:02:28 10° ESE daylight
30 Jan - 11:53:28 10° W 11:59:14 37° SSW 12:07:31 10° SSE daylight
30 Jan - 14:02:00 10° SW 14:03:51 11° SW 14:05:50 10° SSW daylight
31 Jan - 03:10:05 10° SSE 03:11:36 11° SE 03:13:01 10° SE visible
31 Jan - 05:10:18 10° SW 05:14:54 52° SSE 05:19:15 10° E visible
31 Jan - 07:14:06 10° W 07:18:29 65° N 07:23:37 10° ENE daylight
31 Jan - 09:17:36 10° WNW 09:22:28 85° NNE 09:29:14 10° ESE daylight
31 Jan - 11:21:01 10° W 11:26:30 40° SSW 11:34:23 10° SE daylight
31 Jan - 13:28:09 10° WSW 13:30:59 12° SW 13:34:09 10° SSW daylight
01 Feb - 04:37:43 10° SW 04:42:28 45° SSE 04:46:41 10° E visible
01 Feb - 06:41:33 10° W 06:45:59 67° N 06:50:49 10° ENE daylight
01 Feb - 08:45:15 10° WNW 08:49:55 79° NNE 08:56:06 10° E daylight
01 Feb - 10:48:37 10° W 10:53:49 43° SSW 11:01:16 10° SE daylight
01 Feb - 12:54:51 10° WSW 12:58:09 13° SW 13:01:58 10° S daylight
02 Feb - 04:05:05 10° SW 04:10:00 39° SSE 04:14:11 10° E visible
02 Feb - 06:08:58 10° W 06:13:30 71° N 06:18:07 10° ENE visible
02 Feb - 08:12:52 10° WNW 08:17:23 73° N 08:23:03 10° E daylight
02 Feb - 10:16:14 10° W 10:21:12 47° SSW 10:28:10 10° SE daylight
02 Feb - 12:21:49 10° WSW 12:25:22 14° SW 12:29:34 10° S daylight
03 Feb - 03:32:25 10° SW 03:37:31 34° SSE 03:41:41 10° E visible
03 Feb - 05:36:18 10° W 05:41:02 77° NNW 05:45:31 10° ENE visible
03 Feb - 07:40:27 10° WNW 07:44:52 68° N 07:50:06 10° E daylight
03 Feb - 09:43:51 10° W 09:48:37 51° SSW 09:55:08 10° SE daylight
03 Feb - 11:48:58 10° WSW 11:52:38 16° SSW 11:57:04 10° S daylight
04 Feb - 02:59:42 10° SSW 03:05:01 31° SSE 03:09:12 10° E visible
04 Feb - 05:03:34 10° WSW 05:08:33 84° NNW 05:13:00 10° ENE visible
04 Feb - 07:07:57 10° WNW 07:12:22 64° N 07:17:15 10° E daylight
04 Feb - 09:11:28 10° WNW 09:16:04 57° SSW 09:22:10 10° SE daylight
04 Feb - 11:16:13 10° WSW 11:19:56 17° SSW 11:24:30 10° S daylight
05 Feb - 02:26:57 10° SSW 02:32:27 28° SSE 02:36:44 10° E visible
05 Feb - 04:30:45 10° WSW 04:36:05 88° SSE 04:40:32 10° ENE visible
05 Feb - 06:35:24 10° WNW 06:39:52 62° N 06:44:30 10° E daylight
05 Feb - 08:39:05 10° WNW 08:43:34 64° SSW 08:49:14 10° ESE daylight
05 Feb - 10:43:32 10° WSW 10:47:17 19° SSW 10:51:54 10° S daylight
